Location: Nashville
(36.1627°N, 86.7816°W)
Time: 17:01:17
(UTC-06:00)

ISS - Visible Passes

Search period start: 04 December 2021 00:00
Search period end: 14 December 2021 00:00
Orbit: 417 x 422 km, 51.6° (Epoch: 04 December)

Date Brightness Start Highest point End Pass type
(mag) Time Alt. Az. Time Alt. Az. Time Alt. Az.
04 Dec -1.6 17:14:11 10° N 17:15:43 13° NNE 17:16:59 11° NE visible
04 Dec -0.8 18:49:40 10° NW 18:49:59 12° NW 18:49:59 12° NW visible
05 Dec -3.0 18:02:26 10° NW 18:05:09 37° N 18:05:09 37° N visible
06 Dec -2.5 17:15:22 10° NNW 17:18:15 25° NNE 17:20:35 13° E visible
06 Dec -1.2 18:52:02 10° WNW 18:53:38 22° W 18:53:38 22° W visible
07 Dec -3.2 18:04:31 10° NW 18:07:52 59° SW 18:09:30 26° SSE visible
08 Dec -3.8 17:17:13 10° NW 17:20:37 74° NE 17:23:59 10° SE visible
09 Dec -0.7 18:07:37 10° W 18:09:54 17° SW 18:12:10 10° S visible
10 Dec -1.6 17:19:48 10° WNW 17:22:49 30° SW 17:25:49 10° SSE visible
